Station CAPL1 - 8768094 - Calcasieu Pass, LA Image indicating link to RSS feed of recent meteorological observations for station CAPL1


Conditions at CAPL1 as of
(9:48 am CDT)
1448 GMT on 06/21/2024:
     

Click on the graph icon in the table below to see a time series plot of the last five days of that observation.

5-day plot - Wind Direction Wind Direction (WDIR):ESE ( 110 deg true )
5-day plot - Wind Speed Wind Speed (WSPD): 11.1 kts
5-day plot - Wind Gust Wind Gust (GST): 15.9 kts
5-day plot - Atmospheric Pressure Atmospheric Pressure (PRES):30.12 in
5-day plot - Air Temperature Air Temperature (ATMP): 82.9 °F
5-day plot - Water Temperature Water Temperature (WTMP): 83.8 °F
5-day plot - Wind Speed at 10 Meters Wind Speed at 10 meters (WSPD10M): 9.7 kts
5-day plot - Wind Speed at 20 Meters Wind Speed at 20 meters (WSPD20M): 11.7 kts
5-day plot -  Wind Speed, Wind Gust and Atmospheric Pressure Combined plot of Wind Speed, Gust, and Air Pressure
NOS Water Level Observation Network Water Level
Previous observations
TIME
(CDT)
5-day plot - Wind Direction
WDIR
 
5-day plot - Wind Speed
WSPD
kts
5-day plot - Wind Gust
GST
kts
5-day plot - Wave Height
WVHT
ft
5-day plot - Dominant Wave Period
DPD
sec
5-day plot - Average Wave Period
APD
sec
5-day plot - Mean Wave Direction
MWD
 
5-day plot - Atmospheric Pressure
PRES
in
5-day plot - Pressure Tendency
PTDY
in
5-day plot - Air Temperature
ATMP
°F
5-day plot - Water Temperature
WTMP
°F
5-day plot - Dew Point
DEWP
°F
5-day plot - Salinity
SAL
psu
5-day plot - Visibility
VIS
nmi
5-day plot - Tide (above MLLW)
TIDE
ft
2024-06-21 09:42 amESE 12.0 15.9----30.12- 82.4 83.8----
2024-06-21 09:36 amESE 13.0 15.0----30.12- 82.2 83.8----
2024-06-21 09:30 amESE 12.0 15.0----30.13- 82.0 83.8----
2024-06-21 09:24 am E 14.0 17.1----30.12- 81.5 83.8----
2024-06-21 09:18 amESE 12.0 15.9----30.13- 82.0 83.8----
2024-06-21 09:12 amESE 14.0 17.1----30.13- 81.9 83.8----
2024-06-21 09:06 amESE 13.0 17.1----30.12- 81.7 83.8----
2024-06-21 09:00 amESE 13.0 17.1----30.12+0.04 81.3 83.8----
2024-06-21 08:54 amESE 13.0 15.0----30.12- 81.1 83.8----
2024-06-21 08:48 amESE 13.0 15.9----30.12- 81.0 83.8----
2024-06-21 08:42 amESE 13.0 15.9----30.12- 81.1 83.8----
2024-06-21 08:36 amESE 13.0 17.1----30.12- 81.0 83.8----
2024-06-21 08:30 amESE 12.0 15.0----30.11- 80.8 84.0----
2024-06-21 08:24 amESE 12.0 15.0----30.11- 80.2 84.0----
2024-06-21 08:18 amESE 11.1 15.9----30.11- 80.2 83.8----
2024-06-21 08:12 amESE 12.0 19.0----30.11- 79.9 83.8----
2024-06-21 08:06 amESE 13.0 19.0----30.11- 79.7 83.8----
2024-06-21 08:00 amESE 14.0 20.0----30.11+0.03 79.5 83.8----
2024-06-21 07:54 amESE 15.0 19.0----30.10- 79.3 83.8----
2024-06-21 07:48 amESE 13.0 17.1----30.11- 79.2 83.8----
2024-06-21 07:42 amESE 15.0 19.0----30.10- 79.0 83.8----
2024-06-21 07:36 amESE 13.0 17.1----30.11- 78.6 83.8----
2024-06-21 07:30 amESE 14.0 18.1----30.10- 78.6 84.0----
2024-06-21 07:24 amESE 15.9 19.0----30.10- 78.6 84.0----
2024-06-21 07:18 am E 14.0 17.1----30.10- 79.0 84.0----
2024-06-21 07:12 am E 12.0 15.0----30.10- 78.3 84.0----
2024-06-21 07:06 am E 12.0 15.9----30.10- 77.9 84.0----
2024-06-21 07:00 am E 13.0 15.9----30.10+0.02 77.9 84.0----
2024-06-21 06:54 am E 13.0 15.0----30.10- 77.9 84.0----
2024-06-21 06:48 am E 11.1 15.9----30.10- 77.7 84.0----
2024-06-21 06:42 am E 12.0 17.1----30.10- 77.5 84.0----
2024-06-21 06:36 am E 15.0 18.1----30.10- 78.3 84.2----
2024-06-21 06:30 am E 14.0 19.0----30.09- 78.4 84.2----
2024-06-21 06:24 am E 14.0 18.1----30.09- 78.6 84.2----
2024-06-21 06:18 am E 12.0 17.1----30.09- 78.4 84.2----
2024-06-21 06:12 am E 15.0 18.1----30.09- 78.6 84.2----
2024-06-21 06:06 am E 15.0 19.0----30.09- 79.2 84.2----
2024-06-21 06:00 am E 15.0 18.1----30.09+0.00 79.3 84.2----
2024-06-21 05:54 am E 15.0 18.1----30.08- 79.0 84.2----
2024-06-21 05:48 am E 15.0 17.1----30.08- 78.6 84.2----
2024-06-21 05:42 am E 14.0 17.1----30.08- 78.8 84.2----
2024-06-21 05:36 am E 15.0 18.1----30.08- 79.2 84.2----
2024-06-21 05:30 am E 14.0 15.9----30.08- 79.3 84.2----
2024-06-21 05:24 am E 12.0 15.9----30.08- 79.0 84.2----
2024-06-21 05:18 am E 12.0 15.0----30.08- 78.4 84.2----
2024-06-21 05:12 am E 11.1 15.0----30.08- 78.3 84.2----
2024-06-21 05:06 am E 12.0 14.0----30.08- 78.1 84.2----
2024-06-21 05:00 amESE 9.9 14.0----30.08-0.03 77.7 84.2----
2024-06-21 04:54 am E 11.1 14.0----30.07- 77.9 84.2----
2024-06-21 04:48 am E 11.1 13.0----30.08- 78.3 84.2----
2024-06-21 04:42 am E 9.9 14.0----30.08- 78.1 84.2----
2024-06-21 04:36 amESE 9.9 13.0----30.08- 77.9 84.2----
2024-06-21 04:30 am E 9.9 13.0----30.08- 77.9 84.2----
2024-06-21 04:24 am E 11.1 12.0----30.08- 78.1 84.2----
2024-06-21 04:18 am E 9.9 13.0----30.08- 78.1 84.2----
2024-06-21 04:12 am E 9.9 12.0----30.08- 77.9 84.2----
2024-06-21 04:06 am E 9.9 13.0----30.08- 78.1 84.2----
2024-06-21 04:00 am E 9.9 14.0----30.08-0.04 78.1 84.0----
2024-06-21 03:54 am E 11.1 14.0----30.08- 78.3 84.0----
2024-06-21 03:48 am E 12.0 15.0----30.08- 78.4 84.0----
2024-06-21 03:42 am E 11.1 13.0----30.08- 78.6 84.0----
2024-06-21 03:36 am E 9.9 12.0----30.08- 77.9 84.0----
2024-06-21 03:30 am E 8.9 11.1----30.08- 77.9 83.8----
2024-06-21 03:24 amESE 8.0 9.9----30.09- 77.9 83.7----
2024-06-21 03:18 amESE 8.0 9.9----30.09- 77.9 83.7----
2024-06-21 03:12 amESE 8.0 11.1----30.09- 77.9 83.7----
2024-06-21 03:06 amESE 8.0 8.9----30.09- 77.9 83.7----
2024-06-21 03:00 amESE 8.0 9.9----30.09-0.04 78.1 83.7----
2024-06-21 02:54 amESE 8.0 9.9----30.09- 78.3 83.7----
2024-06-21 02:48 amESE 8.9 9.9----30.09- 78.3 83.7----
2024-06-21 02:42 amESE 8.0 11.1----30.09- 78.4 83.7----
2024-06-21 02:36 amESE 8.0 11.1----30.09- 78.3 83.7----
2024-06-21 02:30 amESE 8.0 12.0----30.10- 78.4 83.7----
2024-06-21 02:24 amESE 8.9 11.1----30.10- 78.6 83.7----
2024-06-21 02:18 amESE 9.9 12.0----30.10- 78.6 83.7----
2024-06-21 02:12 amESE 8.0 11.1----30.11- 78.6 83.7----
2024-06-21 02:06 amESE 8.9 11.1----30.11- 78.6 83.7----
2024-06-21 02:00 am E 8.9 12.0----30.11+0.00 79.3 83.7----
2024-06-21 01:54 am E 11.1 12.0----30.11- 79.7 83.7----
2024-06-21 01:48 am E 11.1 14.0----30.11- 80.1 83.7----
2024-06-21 01:42 am E 12.0 14.0----30.11- 80.6 83.7----
2024-06-21 01:36 am E 12.0 14.0----30.11- 80.6 83.7----
2024-06-21 01:30 am E 12.0 14.0----30.11- 80.6 83.7----
2024-06-21 01:24 am E 12.0 14.0----30.12- 80.8 83.8----
2024-06-21 01:18 am E 12.0 14.0----30.12- 80.4 83.8----
2024-06-21 01:12 am E 11.1 13.0----30.12- 80.2 83.8----
2024-06-21 01:06 am E 9.9 12.0----30.12- 79.9 83.8----
2024-06-21 01:00 am E 8.9 12.0----30.12+0.03 79.5 83.8----
2024-06-21 12:54 am E 9.9 12.0----30.12- 80.1 83.8----
2024-06-21 12:48 am E 11.1 14.0----30.12- 80.1 83.8----
2024-06-21 12:42 am E 8.9 12.0----30.12- 79.7 83.8----
2024-06-21 12:36 am E 9.9 12.0----30.13- 79.5 83.8----
2024-06-21 12:30 amESE 8.0 11.1----30.13- 79.2 83.8----
2024-06-21 12:24 am E 8.9 12.0----30.13- 79.2 83.8----
2024-06-21 12:18 am E 8.9 9.9----30.12- 79.0 84.0----
2024-06-21 12:12 amESE 8.0 11.1----30.12- 78.8 84.0----
2024-06-21 12:06 amESE 8.0 11.1----30.12- 78.8 84.0----
2024-06-21 12:00 amESE 9.9 12.0----30.12+0.03 79.2 84.0----
2024-06-20 11:54 pmESE 8.9 9.9----30.12- 79.0 84.2----
2024-06-20 11:48 pmESE 8.9 9.9----30.12- 79.0 84.2----
2024-06-20 11:42 pmESE 8.0 11.1----30.12- 79.0 84.2----
2024-06-20 11:36 pmESE 8.9 12.0----30.11- 79.3 84.2----
2024-06-20 11:30 pmESE 8.9 11.1----30.11- 79.3 84.2----
2024-06-20 11:24 pmESE 9.9 12.0----30.11- 79.5 84.2----
2024-06-20 11:18 pmESE 11.1 12.0----30.11- 79.9 84.2----
2024-06-20 11:12 pm E 11.1 12.0----30.11- 80.4 84.4----
2024-06-20 11:06 pmESE 9.9 11.1----30.11- 80.6 84.4----
2024-06-20 11:00 pm E 9.9 12.0----30.11+0.03 80.6 84.4----
2024-06-20 10:54 pm E 9.9 13.0----30.11- 80.8 84.4----
2024-06-20 10:48 pm E 9.9 13.0----30.11- 80.6 84.4----
2024-06-20 10:42 pm E 9.9 12.0----30.11- 80.6 84.4----
2024-06-20 10:36 pm E 8.9 11.1----30.11- 80.6 84.4----
2024-06-20 10:30 pm E 8.0 12.0----30.11- 80.2 84.4----
2024-06-20 10:24 pm E 8.9 11.1----30.11- 80.4 84.4----
2024-06-20 10:18 pm E 9.9 12.0----30.11- 80.2 84.4----
2024-06-20 10:12 pm E 8.9 13.0----30.10- 80.2 84.6----
2024-06-20 10:06 pm E 8.9 12.0----30.10- 80.1 84.6----
2024-06-20 10:00 pm E 9.9 12.0----30.10+0.02 79.9 84.6----
2024-06-20 09:54 pm E 9.9 12.0----30.10- 80.1 84.6----
2024-06-20 09:48 pm E 11.1 13.0----30.10- 80.6 84.6----
2024-06-20 09:42 pm E 11.1 13.0----30.10- 80.6 84.6----
2024-06-20 09:36 pm E 12.0 13.0----30.10- 80.8 84.6----
2024-06-20 09:30 pm E 9.9 12.0----30.10- 80.8 84.6----
2024-06-20 09:24 pm E 9.9 13.0----30.10- 80.8 84.6----
2024-06-20 09:18 pm E 9.9 12.0----30.10- 80.8 84.6----
2024-06-20 09:12 pm E 8.9 12.0----30.10- 80.8 84.6----
2024-06-20 09:06 pm E 9.9 13.0----30.09- 81.0 84.6----
2024-06-20 09:00 pm E 9.9 13.0----30.09+0.02 81.0 84.6----
2024-06-20 08:54 pm E 11.1 14.0----30.09- 81.0 84.6----
2024-06-20 08:48 pm E 12.0 15.0----30.09- 81.3 84.6----
2024-06-20 08:42 pm E 12.0 15.0----30.09- 81.3 84.6----
2024-06-20 08:36 pm E 11.1 15.0----30.09- 81.5 84.6----
2024-06-20 08:30 pmESE 13.0 15.9----30.09- 82.2 84.6----
2024-06-20 08:24 pmESE 12.0 15.0----30.09- 82.2 84.6----
2024-06-20 08:18 pmESE 13.0 20.0----30.09- 82.2 84.6----
2024-06-20 08:12 pmESE 14.0 19.0----30.08- 82.6 84.6----
2024-06-20 08:06 pmESE 14.0 19.0----30.09- 82.8 84.6----
2024-06-20 08:00 pmESE 13.0 18.1----30.09+0.01 82.9 84.6----
2024-06-20 07:54 pmESE 12.0 18.1----30.08- 82.9 84.6----
2024-06-20 07:48 pmESE 14.0 17.1----30.09- 82.8 84.6----
2024-06-20 07:42 pmESE 14.0 20.0----30.08- 82.9 84.6----
2024-06-20 07:36 pm SE 15.0 22.0----30.08- 82.9 84.6----
2024-06-20 07:30 pm SE 19.0 22.9----30.08- 83.1 84.6----
2024-06-20 07:24 pmESE 15.9 22.0----30.08- 83.1 84.6----
2024-06-20 07:18 pmESE 9.9 15.9----30.08- 82.6 84.6----
2024-06-20 07:12 pmESE 9.9 13.0----30.08- 82.0 84.6----
2024-06-20 07:06 pmESE 11.1 14.0----30.08- 81.7 84.6----
2024-06-20 07:00 pmESE 12.0 13.0----30.08+0.00 81.7 84.6----
2024-06-20 06:54 pmESE 11.1 14.0----30.08- 81.7 84.6----
2024-06-20 06:48 pmESE 8.0 14.0----30.08- 81.1 84.6----
2024-06-20 06:42 pmESE 11.1 14.0----30.08- 81.3 84.6----
2024-06-20 06:36 pm E 12.0 15.0----30.07- 81.3 84.6----
2024-06-20 06:30 pm E 11.1 15.0----30.07- 81.3 84.6----
2024-06-20 06:24 pm E 13.0 18.1----30.07- 81.5 84.6----
2024-06-20 06:18 pm E 14.0 19.0----30.07- 81.7 84.6----
2024-06-20 06:12 pm E 13.0 15.9----30.07- 82.0 84.6----
2024-06-20 06:06 pm E 14.0 19.0----30.07- 82.0 84.6----
2024-06-20 06:00 pm E 13.0 18.1----30.07-0.03 81.9 84.6----
2024-06-20 05:54 pm E 13.0 19.0----30.07- 82.0 84.6----
2024-06-20 05:48 pm E 15.9 19.0----30.07- 82.0 84.7----
2024-06-20 05:42 pm E 15.9 22.9----30.08- 81.9 84.7----
2024-06-20 05:36 pm E 15.0 21.0----30.08- 81.1 84.7----
2024-06-20 05:30 pmESE 15.0 21.0----30.08-- 84.7----
2024-06-20 05:24 pmESE 17.1 22.9----30.08-- 84.7----
2024-06-20 05:18 pmESE 19.0 27.0----30.08-------
2024-06-20 05:12 pmESE 22.0 28.0----30.08-------
2024-06-20 05:06 pm E 21.0 29.9----30.07-------
2024-06-20 05:00 pmESE 22.9 29.9----30.08-0.03 82.2 84.7----
2024-06-20 04:54 pm SE 17.1 22.9----30.08- 86.4 84.6----
2024-06-20 04:48 pm SE 17.1 20.0----30.08- 85.8 84.4----
2024-06-20 04:42 pm SE 15.0 20.0----30.08- 86.2 84.4----
2024-06-20 04:36 pm SE 15.9 20.0----30.08- 86.2 84.6----
2024-06-20 04:30 pm SE 15.9 19.0----30.08- 86.0 84.6----
2024-06-20 04:24 pm SE 15.9 20.0----30.08- 85.8 84.4----
2024-06-20 04:18 pm SE 15.9 19.0----30.08- 85.8 84.4----
2024-06-20 04:12 pm SE 15.9 20.0----30.08- 85.8 84.7----
2024-06-20 04:06 pmSSE 15.9 20.0----30.08- 86.0 84.9----
2024-06-20 04:00 pmSSE 15.0 19.0----30.08-0.03 86.4 84.7----
2024-06-20 03:54 pm SE 15.0 21.0----30.08- 86.0 84.4----
2024-06-20 03:48 pm SE 14.0 20.0----30.09- 86.4 84.6----
2024-06-20 03:42 pmSSE 15.9 19.0----30.09- 86.4 84.6----
2024-06-20 03:36 pmSSE 15.9 19.0----30.09- 86.4 84.4----
2024-06-20 03:30 pmSSE 15.9 21.0----30.09- 86.4 84.4----
2024-06-20 03:24 pmSSE 13.0 20.0----30.09- 86.4 84.2----
2024-06-20 03:18 pmSSE 15.0 19.0----30.10- 86.0 84.4----
2024-06-20 03:12 pmSSE 14.0 18.1----30.09- 86.2 84.4----
2024-06-20 03:06 pmSSE 15.0 19.0----30.09- 86.2 84.6----
2024-06-20 03:00 pm SE 15.0 18.1----30.09-0.02 86.0 84.6----
2024-06-20 02:54 pm SE 13.0 17.1----30.09- 86.2 84.6----
2024-06-20 02:48 pm SE 13.0 17.1----30.09- 86.4 84.4----
2024-06-20 02:42 pm SE 13.0 18.1----30.09- 86.2 84.4----
2024-06-20 02:36 pm SE 15.0 17.1----30.09- 86.0 84.4----
2024-06-20 02:30 pm SE 15.0 19.0----30.10-- 84.4----
2024-06-20 02:24 pm SE 14.0 17.1----30.10-- 84.4----
2024-06-20 02:18 pm SE 13.0 15.9----30.10- 86.2 84.4----
2024-06-20 02:12 pmSSE 11.1 15.0----30.10- 85.3 84.4----
2024-06-20 02:06 pmSSE 12.0 15.0----30.11- 84.9 84.4----
2024-06-20 02:00 pmSSE 13.0 21.0----30.10+0.00 84.6 84.2----
2024-06-20 01:54 pm SE 18.1 20.0----30.11- 85.6 84.2----
2024-06-20 01:48 pm SE 14.0 17.1----30.11- 86.5 84.4----
2024-06-20 01:42 pm SE 15.0 18.1----30.11- 86.5 84.2----
2024-06-20 01:36 pm SE 15.0 17.1----30.11- 86.5 84.2----
2024-06-20 01:30 pm SE 14.0 18.1----30.11- 86.5 84.2----
2024-06-20 01:24 pm SE 14.0 18.1----30.11- 86.5 84.2----
2024-06-20 01:18 pm SE 15.0 19.0----30.11- 86.5 84.2----
2024-06-20 01:12 pm SE 14.0 19.0----30.11- 86.4 84.2----
2024-06-20 01:06 pm SE 15.0 18.1----30.11- 86.2 84.2----
2024-06-20 01:00 pm SE 15.0 20.0----30.11+0.03 86.4 84.0----
2024-06-20 12:54 pmESE 15.0 20.0----30.11- 86.0 84.0----
2024-06-20 12:48 pmESE 17.1 20.0----30.11- 86.2 83.8----
2024-06-20 12:42 pm SE 13.0 18.1----30.12- 86.4 83.8----
2024-06-20 12:36 pmESE 13.0 20.0----30.12- 86.5 83.8----
2024-06-20 12:30 pmESE 15.0 20.0----30.12- 86.2 83.8----
2024-06-20 12:24 pmESE 15.9 20.0----30.12- 85.8 83.8----
2024-06-20 12:18 pmESE 15.0 20.0----30.12- 86.0 83.8----
2024-06-20 12:12 pmESE 15.9 22.9----30.12- 86.2 84.0----
2024-06-20 12:06 pmESE 15.0 22.0----30.11- 85.8 84.0----
2024-06-20 12:00 pmESE 15.0 19.0----30.11+0.05 85.8 84.0----
2024-06-20 11:54 amESE 15.9 20.0----30.11- 85.6 84.0----
2024-06-20 11:48 amESE 17.1 20.0----30.11- 85.5 84.0----
2024-06-20 11:42 amESE 15.0 20.0----30.11- 85.5 84.0----
2024-06-20 11:36 amESE 17.1 21.0----30.11- 85.3 84.0----
2024-06-20 11:30 amESE 18.1 21.0----30.11- 85.3 84.0----
2024-06-20 11:24 amESE 18.1 22.0----30.11- 85.1 84.0----
2024-06-20 11:18 amESE 17.1 21.0----30.11- 85.1 84.0----
2024-06-20 11:12 amESE 18.1 21.0----30.11- 85.1 84.0----
2024-06-20 11:06 amESE 17.1 21.0----30.11- 85.1 83.8----
2024-06-20 11:00 amESE 15.9 19.0----30.10+0.05 84.7 84.0----
2024-06-20 10:54 amESE 15.0 20.0----30.10- 84.4 84.0----
2024-06-20 10:48 amESE 15.0 20.0----30.10- 84.6 84.0----
2024-06-20 10:42 am E 15.0 19.0----30.10- 84.0 84.0----
2024-06-20 10:36 amESE 15.0 21.0----30.09- 84.2 83.8----
2024-06-20 10:30 amESE 15.9 19.0----30.09- 83.8 83.8----
2024-06-20 10:24 am E 15.9 22.0----30.09- 83.3 83.8----
2024-06-20 10:18 am E 15.0 21.0----30.09- 83.5 83.8----
2024-06-20 10:12 amESE 15.0 20.0----30.09- 83.3 83.8----
2024-06-20 10:06 amESE 17.1 21.0----30.09- 82.9 84.0----
2024-06-20 10:00 amESE 15.9 22.0----30.09+0.06 82.9 84.0----
2024-06-20 09:54 amESE 17.1 22.0----30.08- 82.6 83.8----